Showing default

GALILEO 7 (263), 40544

Orbit data source: Space-Track

GALILEO 7 (263), 40544 is a payload satellite owned by GNSS Agency (ESA) that was launched on Fri, 27 Mar 2015 UTC via a SOYUZ-ST-B launch vehicle from the French Guiana (FRGUI). Payload-class satellites include a variety of spacecraft equipped with specific instruments for various scientific and technological missions. These include communications satellites like Starlink; space stations such as the ISS; scientific satellites like the Hubble; Earth observation satellites from companies like Planet Labs, Umbra, and HawkEye 360; GPS; miniature CubeSats for education and research; and military/defense satellites.

Loading next visibility...
Identifier
40544, 2015-017A
Orbit
Active
Country
Flag of ESAESA
Related business
Manufacturer
OHB
Mission
Operational Civil Navigation
Bus & Motor
GALILEOSAT, AOCS
Mass
733 kg wet, 660 kg dry
Launch date (UTC)
2015-03-27 (11 years ago)
Launch vehicle
SOYUZ-ST-B
Launch site
French Guiana (FRGUI)
Object type
Payload
Rocket body
Debris
Shape & HBR
Box + 2 Pan, 7.3 m
Radar Cross Section
9.223 m², Large (>1 m²)

Expand to show TLE details & history
Last TLE update: 5 days ago

TLE from 5 days ago
0 GALILEO 7 (263)
1 40544U 15017A   26168.79938999 -.00000091  00000-0  00000+0 0  9997
2 40544  56.7854 341.5787 0002098 276.4201  83.5494  1.70476090 69215
Epoch: 2026-06-17T19:11Z
TLE epoch observation values (Epoch: 2026-06-17T19:11:07.295Z)
Latitude
-0.00002°
Longitude
147.73429°
Altitude
23,221.547 km
Speed
3.67 km/s
True Right ascension
22h 46m 15s
True Declination
0° 00' 00"
Sunlit
Object was in daylight at epoch
Visualization orbit readout
Latitude
Unknown
Longitude
Unknown
Altitude
Unknown
Speed
Unknown
Apparent Right ascension
Unknown
Apparent Declination
Unknown
Sunlit
N/A
Visualization observer readout
Local Sidereal Time
21:35:43
Azimuth
Unknown
Elevation
Unknown
Doppler factor
Unknown
Orbital elements
Apogee altitude
23,228.095 km
Perigee altitude
23,215.675 km
Semi-major axis
29,600.022 km
Eccentricity
0.00021
Inclination
56.7854°
RAAN
341.5787°
Arg. of periapsis
276.4201°
True anomaly
83.57329°
Mean anomaly
83.5494°
Eccentric anomaly
83.56134°
Mean motion
0.42619 °/min
Orbital period
844.69 mins
BSTAR
0
Loading maneuver chart data...
Computing Atmospheric mass density...
Loading historical data...
Loading historical data...
Loading historical data...
Loading historical data...
Loading historical data...
Loading historical data...
Loading historical data...
Other satellites on launch #17 in the year 2015 (2015-03-27 UTC)

Documentation

Showing up to 5 results
|